RH
62 73 76 79 82 85 90 91 86 77 73 70 68 66 61 57 56 57 60 61 60 59 58 56 55 55 55 55 56 55 56 54 52 51 51 53 54 52 52 51 52 53 54 55 56 58 59 59 58 58 58 62 65 64 61 57 54 52 53 55 55 56 56 55 54 52 53 54 53 54 55 55 56 56 54 50 48 54 57 53 49 48 48 48 51 50 48 49 48 46 49 51 50 51 55 58 57
68 75 77 81 83 85 90 89 84 76 72 72 69 64 59 56 57 59 59 58 58 58 58 57 56 57 57 56 55 52 52 56 54 53 53 54 53 52 50 50 51 51 52 52 54 55 55 54 51 52 54 55 57 58 56 52 50 51 50 53 56 56 55 56 55 53 55 57 56 57 57 56 55 58 57 53 54 59 59 58 54 51 51 51 51 51 50 50 51 49 48 51 53 51 52 57 57
70 78 79 83 85 87 90 88 84 76 71 74 70 60 56 55 57 60 58 57 59 60 59 58 59 60 58 55 56 51 52 57 55 55 54 52 51 50 49 48 48 47 47 48 50 51 49 49 47 49 51 50 50 50 49 47 49 51 52 56 58 58 58 57 57 56 56 58 60 61 61 58 57 58 59 58 58 60 60 61 59 56 54 52 51 51 51 50 52 53 52 55 55 53 54 57 59
72 81 84 87 88 87 91 90 84 76 70 71 67 58 55 53 55 59 59 60 61 62 60 59 60 62 60 56 55 53 53 57 56 56 54 51 48 47 46 45 45 43 43 43 44 45 44 44 44 45 45 45 44 44 45 45 48 51 54 58 58 60 60 59 60 59 58 60 62 64 64 62 60 59 60 62 62 62 62 64 65 61 57 53 53 53 53 52 52 53 55 58 56 54 54 55 57
72 80 84 89 90 87 89 88 82 76 70 67 61 56 55 54 56 57 60 61 61 61 60 58 59 61 59 56 55 53 53 55 55 54 52 49 45 43 43 42 41 40 40 41 41 42 44 43 44 44 43 43 42 43 44 44 47 52 55 57 59 61 61 62 61 62 64 63 64 65 67 66 63 61 62 65 65 66 64 65 68 64 60 56 54 54 53 53 51 52 54 57 56 54 54 54 55
75 82 85 88 88 87 86 83 80 76 71 65 57 56 56 58 60 58 58 59 59 59 59 58 58 60 56 55 56 55 54 53 53 51 49 48 43 41 40 39 39 39 40 41 43 44 46 47 47 47 48 47 47 49 50 50 52 57 59 58 60 62 62 64 63 64 66 65 67 69 70 69 67 65 65 66 64 67 66 65 70 68 64 59 55 54 53 53 52 52 53 54 56 57 56 55 55
78 85 87 85 84 87 86 81 80 76 70 65 59 57 58 59 60 58 57 57 57 57 58 58 58 58 55 57 57 57 56 52 53 49 47 47 43 41 39 37 37 38 41 43 44 46 47 47 48 50 51 52 52 54 57 59 60 61 63 63 62 61 62 66 65 64 66 66 69 71 72 70 69 68 67 67 64 67 69 65 71 71 66 60 56 56 55 54 52 51 52 53 54 56 57 56 54
82 84 85 83 82 87 87 81 78 75 68 65 62 59 59 59 58 56 55 55 55 55 56 55 56 58 58 59 57 58 56 52 52 47 46 46 42 41 39 37 38 40 42 43 45 47 47 48 51 53 54 55 56 58 61 65 65 63 65 68 67 64 64 68 67 66 67 68 71 73 73 70 68 70 69 69 66 70 70 65 69 71 65 60 57 57 57 53 52 52 52 53 52 55 57 56 57
84 81 82 81 82 86 86 80 76 73 67 63 61 60 61 59 57 54 54 54 52 52 53 53 55 58 60 60 58 58 56 51 49 45 45 46 43 41 40 40 40 42 43 45 48 49 51 54 57 56 56 58 59 59 62 65 66 66 65 68 71 68 67 68 69 69 69 71 73 73 73 70 67 70 71 69 68 71 72 66 66 67 64 60 58 58 58 52 50 51 51 52 52 54 52 52 55
83 77 79 82 82 85 85 79 73 71 66 62 60 60 61 59 56 54 53 54 52 50 52 53 56 59 60 59 57 57 55 51 46 44 45 45 42 40 40 41 41 42 44 47 50 52 55 58 61 61 60 61 62 60 61 65 65 66 65 68 72 71 69 69 70 71 72 73 73 71 71 69 67 70 70 68 69 70 71 70 66 65 63 59 57 58 58 53 50 48 49 54 55 54 50 50 50
80 75 76 80 82 85 84 79 74 70 65 60 60 62 62 58 56 54 53 53 51 50 52 54 56 59 60 58 55 54 54 50 45 43 44 43 41 40 40 40 42 44 45 48 51 54 56 59 63 64 62 64 65 61 61 65 65 64 64 66 70 71 70 70 71 72 73 73 72 71 70 68 69 69 68 69 69 66 65 65 63 62 60 55 55 58 57 54 51 46 48 57 56 54 53 48 42
74 72 72 77 81 85 84 80 76 70 63 58 60 63 62 58 56 54 53 51 48 48 51 54 56 57 57 54 52 53 54 49 44 43 42 42 41 40 40 41 44 46 48 51 54 57 59 61 64 63 61 63 65 62 60 64 66 65 64 66 68 69 71 70 70 71 72 72 72 71 70 69 69 66 66 69 65 59 54 51 52 55 58 56 55 55 53 51 46 40 43 52 53 52 49 39 32
70 70 72 78 82 85 84 81 79 70 61 59 61 64 63 60 59 55 52 48 46 47 50 53 54 54 53 50 51 54 54 49 43 42 42 42 41 41 41 43 46 48 52 55 58 60 61 64 65 63 59 61 64 63 61 63 66 67 66 67 67 68 70 70 69 69 71 71 71 71 70 68 68 64 64 64 59 53 46 44 45 48 53 54 51 48 45 42 38 35 39 43 45 44 37 31 31
71 70 74 81 83 85 85 82 81 70 60 60 64 66 64 63 62 57 51 46 45 49 51 52 52 51 52 50 50 54 54 48 43 42 43 44 42 41 42 44 48 52 55 59 61 62 64 66 65 61 56 58 65 65 63 65 68 68 67 66 65 67 69 69 69 68 69 70 71 70 68 66 65 63 61 61 57 50 44 43 45 44 45 44 42 39 35 34 32 34 36 38 39 36 30 30 32
74 71 74 80 83 85 85 82 80 73 62 61 65 66 65 66 63 57 53 49 47 51 50 49 48 47 50 49 48 53 52 46 42 44 45 44 41 41 44 48 53 56 59 61 63 65 66 65 61 57 53 58 67 67 65 66 69 68 68 66 64 67 68 67 67 69 69 70 70 69 68 65 64 64 61 58 53 47 45 44 44 41 38 36 35 33 30 30 30 32 34 36 35 31 30 32 33
73 72 72 78 82 84 84 81 80 75 64 61 65 64 64 65 63 59 55 51 50 50 49 48 47 45 49 50 51 53 50 45 45 46 46 44 42 44 49 53 57 60 62 62 63 66 64 61 59 55 54 60 68 69 65 66 69 68 67 67 64 67 69 67 67 68 69 69 68 67 66 64 64 67 61 53 47 47 47 43 37 33 31 31 31 29 28 28 29 31 33 34 31 30 32 33 34
68 70 72 77 81 84 84 80 81 76 64 63 65 62 62 63 62 62 57 52 51 49 49 49 47 47 49 51 52 51 48 47 48 47 46 46 47 51 56 58 60 62 63 62 63 63 60 60 58 55 55 59 66 68 64 64 66 66 68 67 64 65 68 67 66 66 66 65 64 64 64 62 62 63 57 50 48 48 44 36 30 28 28 29 27 26 27 28 29 30 32 32 31 32 34 34 34
64 67 72 77 79 84 85 81 83 77 63 63 65 61 61 61 61 62 57 53 50 48 48 48 49 51 48 48 51 51 52 52 51 50 50 52 55 59 62 62 63 63 63 61 60 60 59 59 57 55 56 57 62 63 62 61 62 64 65 64 64 64 64 64 64 64 63 62 62 63 62 60 58 56 53 52 50 46 39 32 29 29 28 26 25 25 27 27 28 30 31 32 33 34 34 34 33
60 64 68 73 76 81 84 83 84 76 63 63 66 63 61 61 61 60 56 53 48 46 48 48 51 53 49 51 54 55 56 56 56 57 57 57 59 62 65 66 66 65 61 58 58 58 59 58 57 55 55 57 60 60 60 59 58 58 58 60 63 61 60 62 63 63 61 61 63 62 58 56 54 53 51 50 46 42 36 30 28 26 25 24 24 26 27 27 28 31 33 34 35 35 34 33 33
58 63 64 68 72 76 83 85 84 77 66 64 65 63 62 62 61 59 57 52 46 45 47 48 50 52 51 55 58 56 58 60 61 62 61 60 60 63 67 67 66 64 60 56 55 57 59 57 56 57 54 56 58 58 57 56 54 54 54 57 60 58 57 59 60 59 60 62 62 58 54 51 50 48 46 43 41 37 31 27 25 24 23 25 27 29 29 29 32 35 36 36 36 34 33 33 34
59 61 61 66 69 72 83 88 85 79 70 64 65 63 61 62 60 59 58 51 45 44 47 48 49 50 51 55 58 58 61 62 62 63 62 62 63 66 67 66 64 61 57 54 54 56 58 57 57 57 55 54 55 55 54 53 54 54 54 55 56 55 53 54 54 55 56 59 57 52 49 46 43 42 40 39 37 32 28 26 25 25 27 29 31 32 31 33 36 38 38 37 36 35 35 34 34
58 61 62 66 70 74 84 90 86 80 73 66 66 64 61 62 61 59 58 52 46 44 47 49 49 50 51 54 57 59 63 64 64 64 64 64 67 68 67 64 61 58 56 54 55 56 57 56 57 57 55 53 52 52 53 53 54 54 53 53 54 52 50 49 49 49 51 52 49 46 43 40 39 38 37 37 34 29 26 26 26 29 32 34 35 34 34 36 39 39 39 38 37 36 35 33 32
55 59 64 68 74 79 85 89 86 80 74 67 66 66 63 63 62 59 58 53 45 42 45 49 50 50 50 51 54 60 64 64 65 65 65 66 69 68 64 62 59 57 55 55 55 54 54 55 56 56 54 53 51 51 51 52 52 52 51 51 50 49 47 47 46 45 45 45 42 40 39 38 38 37 36 36 32 27 26 27 29 33 35 37 37 36 37 39 40 41 40 38 36 35 34 33 32
56 58 65 71 77 83 86 89 85 79 74 70 69 69 66 64 64 62 59 54 46 40 44 49 50 49 48 48 51 59 64 63 64 64 64 66 68 65 62 60 57 55 53 54 54 52 52 53 53 54 52 51 51 50 49 48 48 47 47 47 47 46 46 45 44 43 42 40 38 37 38 39 38 37 36 35 33 29 28 29 31 35 38 38 38 38 39 41 41 41 40 37 35 34 33 33 32
56 59 65 71 78 83 87 89 85 80 75 73 73 71 68 68 66 64 61 56 47 41 43 48 50 48 48 46 48 58 65 64 64 64 65 67 66 63 61 57 54 53 52 53 54 52 51 51 50 50 50 49 49 49 47 44 43 43 44 44 45 44 43 42 42 41 40 38 37 38 39 39 38 37 35 35 34 32 32 33 35 37 39 39 38 39 41 42 41 40 39 36 34 33 33 33 33
54 59 65 70 76 82 88 91 86 80 76 74 76 74 71 70 66 63 63 58 49 44 45 48 49 49 50 48 47 56 64 64 62 64 66 66 64 62 59 53 52 54 52 52 54 53 50 48 47 48 48 47 46 46 45 42 40 40 41 41 41 39 37 37 38 38 38 37 37 38 37 37 36 36 35 36 36 34 35 36 37 39 40 40 39 40 41 41 41 40 38 36 33 33 33 34 34
56 60 64 68 74 79 86 92 89 82 78 75 77 78 74 71 67 62 62 60 52 49 48 49 49 49 50 50 49 53 60 60 60 63 65 64 63 61 57 50 51 53 51 53 54 52 48 45 44 45 46 44 43 43 42 41 39 38 38 37 36 34 33 34 34 35 35 35 35 35 35 36 37 37 38 38 37 37 38 39 40 41 41 40 40 41 42 42 42 39 37 35 33 33 34 35 35
56 59 62 66 71 76 81 89 92 86 83 80 79 79 77 74 69 63 63 61 55 53 51 50 50 50 50 50 50 51 57 61 60 61 62 60 60 58 53 48 48 49 51 54 52 48 46 43 42 42 43 42 41 41 38 37 36 35 34 34 34 33 34 34 34 33 33 33 33 35 36 38 39 40 41 40 40 39 41 43 44 43 42 41 41 41 42 43 42 40 36 34 33 33 34 36 36
56 57 61 64 66 71 77 85 91 89 87 85 81 83 82 77 71 65 63 61 57 54 52 51 50 49 50 50 49 50 57 62 60 59 58 56 55 53 50 48 46 45 49 52 48 45 43 41 41 41 40 39 39 38 35 33 33 33 33 33 34 35 36 36 35 34 35 36 37 38 39 40 41 42 43 41 40 41 44 46 46 44 43 42 41 41 43 43 43 40 35 33 33 34 35 36 36
56 57 59 63 64 68 73 80 87 88 88 87 86 87 84 79 75 68 63 62 59 53 51 51 49 48 49 50 49 51 57 61 59 58 58 57 54 51 49 49 47 45 46 47 46 44 42 40 41 40 39 37 36 36 34 32 33 33 33 34 35 36 37 36 35 36 38 40 42 42 43 44 44 46 46 42 41 43 45 45 45 45 43 42 42 42 42 43 43 39 34 32 32 34 36 37 36
53 55 58 61 64 69 71 76 82 85 86 87 89 89 84 81 78 71 66 64 59 51 50 50 48 47 48 48 48 50 55 59 59 57 57 57 54 50 49 49 47 45 43 44 44 43 41 41 40 39 39 36 35 35 34 32 33 34 34 34 35 36 37 37 39 41 44 45 45 46 47 47 48 50 48 44 43 44 44 45 46 46 44 42 41 41 42 42 42 38 33 32 32 34 35 37 37
47 53 59 60 61 65 67 72 77 79 83 86 89 90 87 85 80 74 69 66 60 50 48 49 47 46 46 47 47 49 54 57 57 56 55 56 54 49 48 49 47 44 42 41 42 42 42 40 39 38 37 36 35 35 34 32 33 34 34 34 34 35 36 39 42 45 47 47 48 48 48 49 50 51 50 46 45 45 45 46 46 46 44 42 41 41 41 41 39 36 33 32 33 34 34 35 36
46 52 57 59 58 59 62 67 70 74 80 86 90 90 89 88 84 76 71 69 61 50 47 47 45 45 45 44 46 48 52 56 55 53 52 53 53 49 47 49 46 43 41 41 41 41 41 40 38 38 37 36 34 34 33 32 32 34 35 34 33 34 36 40 44 45 46 47 48 48 48 49 51 51 49 47 46 46 46 47 46 45 43 42 41 40 40 40 39 36 34 34 34 34 34 35 36
46 51 55 58 58 57 58 62 66 70 77 85 89 90 89 90 88 80 74 72 64 51 47 47 44 44 45 42 44 47 49 53 52 51 51 51 51 49 48 48 45 43 41 40 40 39 40 40 39 38 38 37 34 32 31 31 32 33 35 34 33 34 38 43 45 46 46 47 47 47 46 48 50 49 48 46 46 47 47 47 46 44 43 42 41 40 39 40 40 38 37 36 35 35 35 36 36
40 48 53 57 58 57 55 57 63 68 75 83 87 90 91 90 90 84 76 73 68 55 48 48 45 43 44 42 42 45 47 50 50 49 50 50 50 49 49 47 44 42 41 40 40 40 39 40 41 40 39 38 35 32 31 30 31 33 34 34 33 35 40 45 47 47 47 46 46 45 45 46 47 48 46 45 46 47 47 48 46 44 43 42 41 40 40 41 41 41 41 39 38 36 35 36 35
39 44 49 54 57 57 56 55 60 65 74 84 86 88 92 93 93 86 77 74 71 61 51 49 48 45 44 41 41 44 45 50 50 47 48 49 50 50 48 46 42 41 40 39 40 40 40 41 42 42 40 38 35 33 32 31 31 32 33 34 34 36 41 45 47 47 47 46 45 44 44 45 47 48 47 46 46 47 48 48 47 45 44 43 43 42 42 42 42 43 43 41 40 37 35 35 36
41 43 46 54 59 60 60 56 59 64 72 84 86 86 91 95 94 87 79 75 72 64 54 49 48 47 45 41 40 42 44 50 50 46 47 49 50 50 48 46 43 39 38 39 39 40 41 41 42 43 41 37 35 34 32 31 30 31 31 33 35 36 39 43 45 45 46 46 46 45 45 46 47 49 50 48 47 47 48 48 48 47 45 45 44 43 43 41 41 43 44 42 41 39 36 34 35
38 40 44 53 60 64 63 60 61 64 69 81 87 89 94 95 95 91 82 75 72 65 56 49 46 47 46 41 39 41 44 49 48 46 46 47 49 49 48 47 44 40 37 38 39 40 40 40 42 41 40 38 35 34 32 31 31 30 30 31 34 36 38 41 43 43 43 44 44 44 45 46 47 49 51 51 49 48 48 48 49 47 46 46 45 44 43 41 41 44 45 44 41 39 36 35 35
35 42 46 51 59 64 64 65 65 64 70 79 86 93 97 96 95 94 87 77 73 69 59 50 44 45 46 42 39 40 44 46 46 46 45 46 48 48 48 47 45 41 38 38 39 40 40 40 41 40 40 39 37 35 32 31 31 29 29 29 31 34 36 40 42 42 42 42 44 44 45 45 47 49 51 52 51 50 48 48 48 47 47 47 47 45 43 41 40 43 46 46 44 42 38 35 36
35 43 47 51 58 61 64 71 69 65 72 78 84 94 98 97 97 94 89 82 78 73 64 54 45 44 46 44 40 39 42 43 44 45 44 44 46 47 48 47 45 43 39 38 38 40 41 41 42 41 40 42 41 38 33 31 31 31 29 28 29 32 35 38 40 41 41 42 43 43 43 44 45 48 51 52 52 50 49 48 48 48 48 48 47 46 44 43 42 42 43 45 46 46 41 36 35
35 41 46 52 58 59 62 72 73 68 72 76 82 93 97 96 97 94 90 87 82 76 69 60 48 43 46 45 41 39 39 40 42 44 44 44 44 46 47 46 45 43 40 38 37 39 40 41 44 43 42 44 45 42 36 33 33 33 31 30 30 32 36 38 39 39 40 41 42 43 42 42 42 45 48 50 50 49 48 48 48 49 48 48 47 46 44 44 43 42 42 43 44 45 43 38 35
32 39 46 52 58 60 64 71 73 70 73 75 79 90 95 94 93 91 90 89 86 80 74 63 51 44 44 44 42 40 37 37 39 41 43 44 43 44 46 45 44 43 40 39 38 38 40 42 44 44 43 45 46 44 39 37 36 35 34 33 33 35 37 39 40 40 40 41 43 44 43 41 41 42 44 45 47 48 48 47 48 48 48 48 47 45 44 44 43 42 42 43 43 42 41 38 36
28 39 49 55 58 63 70 73 72 72 74 76 79 86 93 95 92 87 88 89 87 84 77 68 57 47 42 42 42 40 37 36 37 39 41 42 42 42 44 44 44 43 41 39 39 39 41 42 44 44 44 45 46 45 42 41 41 40 38 37 37 38 39 40 40 42 43 43 43 44 43 42 40 41 42 43 44 45 46 47 47 47 47 47 47 45 44 44 44 43 43 44 44 42 41 40 38
29 43 54 57 57 63 74 74 71 71 70 74 81 87 91 93 92 87 87 89 89 86 80 73 63 51 43 41 41 40 38 36 36 37 39 41 41 40 42 44 44 44 42 41 41 41 42 43 43 43 44 45 46 46 45 44 46 44 42 40 39 40 39 38 39 40 41 42 42 42 42 41 41 41 42 42 42 43 44 45 46 46 45 45 46 46 46 46 46 45 45 44 44 42 42 42 41
34 47 56 58 56 64 74 73 72 71 68 73 82 87 91 91 89 87 86 90 92 88 83 78 68 56 48 43 39 39 39 36 35 36 37 40 40 40 40 42 44 43 42 41 42 42 42 43 44 44 44 45 46 47 46 46 48 48 45 42 41 40 39 38 37 38 39 41 41 40 39 40 41 42 42 42 41 41 42 42 43 43 43 43 44 45 46 47 47 47 46 46 45 44 43 44 45
38 46 55 58 58 67 74 71 73 75 70 74 80 84 90 90 86 87 87 88 88 86 85 81 72 61 52 46 40 38 39 38 37 36 37 39 41 40 40 41 42 42 41 41 42 43 43 43 43 44 46 46 46 47 47 47 49 49 47 43 41 41 40 39 38 38 39 40 40 39 38 38 38 40 42 41 41 42 42 41 41 42 41 41 41 42 44 45 46 46 47 46 46 45 45 45 46
37 42 52 59 62 69 75 73 74 74 70 73 77 81 87 88 85 86 86 84 82 82 85 84 76 66 56 48 42 39 39 38 38 37 37 39 41 42 41 41 41 41 40 40 42 43 43 42 43 44 46 48 49 49 48 48 48 48 47 45 43 43 42 41 39 39 40 40 40 40 40 38 38 39 41 41 41 42 43 42 41 42 41 40 40 41 42 43 44 44 45 45 45 44 44 44 45
35 39 45 56 65 69 74 77 74 71 70 72 74 76 84 87 82 81 82 82 82 82 84 85 79 68 57 49 43 40 39 38 39 39 39 40 41 42 42 41 40 40 39 39 41 43 43 42 43 45 46 48 50 51 50 48 47 47 47 47 46 45 45 43 41 40 40 40 41 40 39 39 38 37 38 40 40 41 43 43 43 42 42 41 41 42 43 44 45 46 45 45 45 44 43 43 45
34 37 41 52 66 69 72 77 73 68 70 72 72 73 80 80 73 73 80 83 83 82 82 84 82 72 59 49 44 42 40 39 41 40 39 40 41 40 41 40 39 38 38 38 40 41 42 42 43 44 45 47 48 50 49 48 48 47 46 47 48 49 48 45 44 42 42 43 42 41 39 39 39 39 38 39 40 40 42 43 43 42 42 41 42 43 44 46 47 48 48 47 47 45 43 43 44
34 38 42 49 62 68 73 78 72 65 67 72 73 73 76 74 67 67 74 79 82 82 81 81 83 78 63 49 44 44 42 41 42 41 40 40 40 40 40 40 39 37 36 37 38 39 40 40 41 42 44 44 46 47 47 47 48 48 48 48 49 50 50 48 47 45 44 44 44 44 43 42 41 41 39 39 40 41 42 42 41 41 41 41 42 43 44 46 47 48 48 47 47 45 43 42 42
38 39 43 50 58 62 67 72 70 65 68 73 75 73 71 70 69 68 70 74 79 81 82 81 81 80 70 55 48 47 46 44 43 42 41 40 40 40 40 40 39 37 35 36 37 37 38 39 40 40 41 42 43 45 45 45 46 47 48 48 49 50 50 49 49 48 46 45 46 48 47 46 45 45 43 42 42 43 44 44 42 41 41 42 42 43 44 45 46 48 49 48 48 46 43 42 41
48 44 47 53 58 60 63 66 68 70 71 72 73 70 64 63 66 68 68 72 75 78 81 82 79 78 76 65 54 49 49 47 46 44 41 40 40 40 39 40 40 38 36 36 37 37 38 39 39 39 39 39 41 43 44 44 44 43 45 46 47 49 50 50 50 49 49 48 49 50 50 49 47 47 47 47 46 47 48 47 45 43 43 43 43 43 43 44 46 48 48 48 48 48 46 45 44
55 52 52 55 58 60 63 66 68 69 67 65 66 66 63 62 62 65 68 70 71 72 77 81 80 77 76 71 60 52 49 48 46 44 41 39 41 40 39 39 40 39 37 37 38 38 39 40 41 41 40 39 40 42 43 43 44 43 42 44 47 50 51 52 52 51 51 51 51 51 51 50 50 50 50 50 51 51 51 51 49 47 46 45 45 44 44 44 45 46 46 45 45 46 46 47 47
55 58 56 54 58 59 59 66 71 67 61 60 63 65 66 66 64 65 68 69 69 69 72 77 81 78 74 72 66 57 51 48 46 44 41 40 41 42 40 39 40 40 39 38 38 39 41 43 43 44 43 41 40 41 42 42 43 42 41 43 47 51 52 53 53 53 52 52 51 50 50 51 51 51 51 52 52 53 53 53 52 51 49 47 46 45 45 45 44 44 43 42 42 41 41 43 44
51 56 55 54 62 64 60 65 70 68 62 57 59 64 64 62 62 64 66 68 68 68 70 73 78 78 75 72 70 65 58 51 47 46 44 40 40 41 40 40 40 41 41 41 40 40 41 43 45 46 46 45 43 42 41 40 42 42 41 42 45 50 52 52 53 53 53 53 53 51 50 51 51 51 51 52 53 52 52 53 54 54 52 49 48 48 47 46 45 44 44 43 42 41 40 40 41
51 51 54 57 64 66 63 65 66 65 65 60 58 62 58 55 59 62 64 66 68 69 70 72 75 77 76 74 73 71 64 55 48 46 46 42 40 40 40 41 41 41 42 43 43 42 41 42 44 45 47 47 46 45 43 40 40 41 41 41 43 46 49 51 51 52 53 54 54 54 52 51 51 52 52 52 53 53 53 54 55 55 54 51 50 50 50 49 47 46 45 45 45 44 42 41 42
52 51 55 58 61 61 59 63 62 59 61 62 59 56 52 54 62 65 65 66 66 68 70 72 74 77 77 73 73 72 64 54 48 48 48 46 43 41 40 41 42 43 43 43 44 44 42 41 41 43 45 46 47 47 45 42 40 40 40 41 42 44 46 48 49 51 53 54 54 55 55 53 52 52 51 52 53 54 55 56 57 58 57 56 53 52 52 52 50 48 48 48 47 46 46 45 44
51 53 56 56 57 56 55 60 61 57 56 58 57 52 50 57 64 65 66 66 65 67 70 72 75 79 79 73 70 70 62 53 51 50 50 50 49 46 44 42 43 44 43 42 42 43 43 42 41 42 42 44 46 47 47 45 41 38 38 39 40 41 43 45 47 49 51 52 54 55 56 55 54 53 52 52 52 53 54 55 56 58 60 60 59 56 55 53 51 50 50 50 48 47 48 47 46